HJ3GNC-17 Weather Reports


Display with metric or nautical units.
time (UTC)temp
F
wind
direction
speed
MPH
gust
MPH
rain 1hr
in
rain 24hr
in
rain mn
in
humidity
%
barometer
mb
20260504211235 57 60 0.0 0.0 0.00 0.00 0.00 70 1014.0
20260504205652 57 57 0.0 0.0 0.00 0.00 0.00 68 1014.0
20260504204057 57 57 0.0 0.0 0.00 0.00 0.00 68 1014.0
20260504202511 57 301 0.0 0.0 0.00 0.00 0.00 68 1014.0
20260504200857 57 301 0.0 0.0 0.00 0.00 0.00 68 1014.0
20260504195314 57 301 0.0 0.0 0.00 0.00 0.00 68 1014.0
20260504193731 58 120 0.0 0.0 0.00 0.00 0.00 68 1014.0
20260504192150 59 0 0.0 0.0 0.00 0.00 0.00 68 1014.0
20260504190601 59 0 0.0 0.0 0.00 0.00 0.00 67 1014.0
20260504185020 59 150 0.0 0.0 0.00 0.00 0.00 66 1014.0
20260504183439 59 150 0.0 0.0 0.00 0.00 0.00 67 1014.0
20260504181854 59 150 0.0 0.0 0.00 0.00 0.00 67 1015.0
20260504180312 59 120 0.0 0.0 0.00 0.00 0.00 68 1015.0
20260504174730 59 120 0.0 0.0 0.00 0.00 0.00 70 1015.0
20260504173147 59 120 0.0 0.0 0.00 0.00 0.00 73 1015.0
20260504171601 59 120 0.0 0.0 0.00 0.00 0.00 76 1016.0
20260504100504 49 0 0.0 0.0 0.00 0.00 0.00 99 1018.0
20260504081345 49 20 0.0 0.0 0.00 0.00 0.00 99 1018.0
20260504050210 50 280 0.0 0.0 0.00 0.00 0.00 99 1020.0
20260504044624 50 125 0.0 0.0 0.00 0.00 0.00 98 1020.0
20260504043040 50 125 0.0 0.0 0.00 0.00 0.00 98 1020.0
20260504041455 50 122 0.0 0.0 0.00 0.00 0.00 98 1020.0
20260504035911 50 340 0.0 0.0 0.00 0.00 0.00 98 1020.0
20260504034316 50 340 0.0 0.0 0.00 0.00 0.00 98 1020.0
20260504032727 51 340 0.0 0.0 0.00 0.00 0.00 98 1020.0
20260504031140 51 340 0.0 0.0 0.00 0.00 0.00 98 1020.0
20260504025555 51 0 0.0 0.0 0.00 0.00 0.00 98 1020.0
20260504023917 51 0 0.0 0.0 0.00 0.00 0.00 98 1020.0
20260504022332 51 0 0.0 0.0 0.00 0.00 0.00 98 1019.0
20260504020726 51 0 0.0 0.0 0.00 0.00 0.00 97 1019.0
20260504015137 51 0 0.0 0.0 0.00 0.00 0.00 96 1019.0
20260504013541 52 0 0.0 0.0 0.00 0.00 0.00 94 1019.0
20260504010255 52 250 0.0 0.0 0.00 0.00 0.00 92 1018.0
20260504004657 52 250 0.0 0.0 0.00 0.00 0.00 90 1018.0
20260504001145 52 250 0.0 0.0 0.00 0.00 0.00 88 1017.0
20260503235536 52 123 0.0 0.0 0.00 0.00 0.00 83 1017.0
20260503233913 53 270 0.0 0.0 0.00 0.00 0.00 83 1017.0
20260503232324 54 270 0.0 0.0 0.00 0.00 0.00 83 1016.0
20260503230734 54 270 0.0 0.0 0.00 0.00 0.00 80 1016.0
20260503225148 54 118 0.0 0.0 0.00 0.00 0.00 77 1016.0
20260503223551 54 118 0.0 0.0 0.00 0.00 0.00 77 1015.0
20260503222008 54 133 0.0 0.0 0.00 0.00 0.00 77 1014.0
20260503220419 54 133 0.0 0.0 0.00 0.00 0.00 77 1014.0
20260503213249 54 133 0.0 0.0 0.00 0.00 0.00 77 1014.0